Temp
12 12 12 12 11 11 11 11 10 10 10 10 9 9 9 9 9 9 9 9 9 9 9 9 9 8 8 8 8 8 7 7 7 7 6 6 6 5 5 5 5 5 5 5 5 5 5 5 5 4 4 4 4 4 4 4 4 4 4 4 4 3 3 3 3 3 3 3 3
12 12 12 12 11 11 10 10 10 10 10 9 9 9 9 9 9 9 9 8 8 8 8 8 8 8 8 8 8 7 7 7 7 7 6 6 5 5 5 5 5 5 5 5 5 5 4 4 4 4 4 4 4 4 4 4 4 4 4 4 4 3 3 3 3 3 3 3 3
12 12 11 11 11 10 10 10 10 10 9 9 9 9 9 9 9 9 9 8 8 8 8 8 8 8 8 8 8 7 7 7 7 6 6 5 5 5 4 4 4 4 4 4 4 4 4 4 4 4 4 4 4 4 4 4 4 4 4 3 3 3 3 3 3 3 3 3 3
12 11 11 10 10 10 10 10 10 9 9 9 9 9 9 9 9 8 8 8 8 8 7 7 7 7 7 8 7 7 7 7 6 6 5 4 4 4 4 4 4 4 4 4 4 4 4 4 4 4 4 4 4 4 4 4 3 3 3 3 3 3 3 3 3 3 3 3 3
11 11 10 10 10 10 10 10 9 9 9 9 9 9 8 8 8 8 8 8 7 7 7 7 7 7 7 7 7 7 6 6 5 5 4 4 4 4 4 4 4 3 3 3 3 3 3 4 4 4 4 4 4 4 3 3 3 3 2 2 2 3 3 3 3 3 3 3 3
11 10 10 10 10 10 9 9 9 9 9 9 8 8 8 8 8 7 7 7 7 7 7 7 7 7 7 6 6 6 5 5 5 4 4 4 3 3 3 3 3 3 3 3 3 3 3 3 3 3 3 3 3 3 3 3 2 2 2 2 2 2 3 3 3 3 3 2 2
10 10 10 10 9 9 9 9 9 9 8 8 8 8 8 8 7 7 7 7 7 7 7 7 7 6 6 6 5 5 5 4 4 4 3 3 3 3 3 3 3 3 3 3 3 3 3 3 3 3 3 3 3 3 3 3 2 2 2 2 2 2 2 3 3 2 2 2 2
9 9 9 9 9 8 8 8 8 8 8 8 7 7 7 7 7 7 7 7 7 6 6 6 6 6 5 5 5 4 4 4 3 3 3 3 3 3 3 3 3 3 3 3 3 3 3 3 3 3 3 3 3 3 3 2 2 1 1 1 1 2 2 2 2 2 2 2 2
9 9 8 8 8 8 8 7 7 7 7 7 7 7 7 7 7 6 6 6 6 6 6 5 5 5 4 4 4 4 3 3 3 3 3 3 3 3 3 3 2 2 2 2 2 2 2 2 2 2 2 2 3 3 3 2 1 1 1 1 1 2 2 2 2 2 2 2 2
8 8 8 8 7 7 7 7 7 7 7 7 7 6 6 6 6 5 5 5 5 5 5 4 4 4 4 4 3 3 3 3 3 3 3 3 2 2 2 2 2 2 2 2 2 3 3 3 2 2 2 2 3 3 2 1 1 1 1 1 1 1 1 2 2 2 2 2 1
8 7 7 7 7 7 7 7 7 7 6 6 6 6 5 5 5 5 5 4 4 4 4 4 4 4 3 3 3 3 3 3 2 2 2 2 2 2 2 2 2 2 2 3 3 3 3 2 2 2 2 2 2 2 1 1 1 1 1 0 0 1 1 1 1 1 1 1 1
7 7 7 7 7 7 7 7 7 6 6 6 5 5 5 5 5 4 4 4 4 4 4 4 3 3 3 3 3 3 2 2 2 2 2 2 2 2 2 2 2 2 2 2 2 2 2 2 2 2 2 2 2 1 1 1 0 0 0 0 0 0 0 0 1 1 1 1 0
7 7 7 7 7 7 7 7 6 6 6 6 5 5 5 5 4 4 4 4 4 4 3 3 3 3 3 3 3 2 2 2 2 1 1 1 1 1 2 2 2 2 2 2 2 2 1 1 1 1 1 1 1 1 0 0 -0 -0 -0 -0 -0 -0 0 0 0 0 0 0 0
7 7 7 7 7 7 7 7 6 6 6 6 5 5 5 5 4 4 4 4 3 3 3 3 3 3 2 2 2 2 1 1 1 1 1 1 1 1 1 1 1 1 1 1 1 1 1 1 1 0 0 0 0 -0 -0 -0 -0 -1 -1 -1 -1 -0 -0 -0 -0 -0 -0 -0 -0
7 7 7 7 7 7 7 7 6 6 6 5 5 5 5 4 4 4 4 3 3 3 3 2 2 2 2 2 1 1 1 1 1 1 0 0 1 1 1 1 1 1 0 0 0 0 0 0 0 0 -0 -0 -0 -0 -1 -1 -1 -1 -1 -1 -1 -1 -1 -1 -1 -1 -1 -1 -1
7 7 7 7 7 7 7 6 6 6 5 5 4 4 4 4 4 3 3 3 3 2 2 2 1 1 1 1 1 1 0 1 0 0 0 0 0 0 0 0 0 -0 -0 -0 -0 -0 -0 -0 -1 -1 -1 -1 -1 -1 -1 -1 -1 -1 -1 -1 -1 -1 -1 -1 -1 -1 -1 -1 -1
7 7 7 7 7 6 6 5 5 5 5 4 4 4 3 3 3 3 3 2 2 2 2 1 1 1 0 0 0 0 0 0 0 0 -0 -0 -0 -0 -0 -0 -1 -1 -1 -1 -1 -1 -1 -1 -1 -1 -1 -1 -1 -1 -1 -1 -1 -1 -1 -1 -1 -1 -1 -2 -2 -2 -2 -2 -2
7 7 7 7 6 6 5 5 4 4 4 4 3 3 3 3 3 2 2 2 2 2 1 1 1 0 0 0 0 0 0 0 -0 -0 -0 -0 -0 -0 -1 -1 -1 -1 -1 -1 -1 -1 -1 -1 -1 -1 -1 -1 -1 -1 -1 -1 -1 -1 -1 -1 -1 -2 -2 -2 -2 -2 -3 -3 -3
7 7 6 6 6 5 4 4 4 3 3 3 3 3 3 2 2 2 2 2 2 1 1 1 1 0 0 0 0 0 0 -0 -0 -0 -0 -0 -0 -1 -1 -1 -1 -1 -1 -1 -1 -1 -1 -1 -1 -1 -1 -1 -1 -1 -1 -2 -2 -2 -2 -2 -2 -3 -3 -3 -3 -3 -3 -3 -3
6 6 6 5 5 4 4 3 3 3 3 3 3 2 2 2 2 2 1 1 1 1 1 0 0 0 0 0 0 0 -0 -0 -0 -0 -1 -1 -1 -0 -0 -1 -1 -1 -1 -1 -1 -1 -1 -1 -1 -1 -1 -1 -2 -2 -2 -2 -2 -3 -3 -3 -3 -3 -3 -3 -3 -3 -3 -3 -4
6 5 5 4 4 3 3 3 3 3 2 2 2 2 2 1 1 1 1 1 1 0 0 0 0 0 0 0 -0 -0 -0 -0 -0 -1 -1 -1 -1 -1 -1 -1 -1 -1 -1 -1 -2 -2 -2 -2 -2 -2 -2 -2 -3 -3 -3 -3 -3 -4 -4 -4 -4 -4 -4 -4 -4 -4 -4 -4 -4
5 5 4 4 3 2 2 2 2 2 2 2 2 1 1 1 1 1 1 1 0 0 -0 -0 -0 -0 -0 -0 -0 -0 -0 -1 -1 -1 -1 -1 -1 -1 -1 -1 -1 -2 -2 -2 -2 -2 -3 -3 -3 -3 -3 -3 -3 -4 -4 -4 -4 -4 -4 -4 -4 -4 -4 -4 -4 -4 -4 -4 -4
4 4 3 3 2 2 2 2 2 2 1 1 1 1 0 0 0 0 0 0 -0 -0 -0 -0 -1 -1 -1 -1 -1 -1 -1 -1 -1 -1 -1 -2 -2 -2 -2 -2 -2 -2 -2 -3 -3 -3 -3 -3 -3 -3 -3 -4 -4 -4 -4 -4 -4 -4 -4 -4 -4 -4 -4 -4 -4 -4 -4 -4 -4
4 3 2 2 2 2 1 1 1 1 1 1 0 0 -0 -0 -0 -0 -0 -0 -1 -1 -1 -1 -1 -1 -1 -1 -2 -2 -2 -2 -2 -2 -2 -2 -2 -2 -2 -3 -3 -3 -3 -3 -3 -3 -3 -3 -3 -3 -4 -4 -4 -4 -4 -4 -4 -4 -5 -5 -5 -5 -5 -5 -5 -5 -4 -4 -4
3 2 2 1 1 1 1 1 0 0 -0 -0 -0 -1 -1 -1 -1 -1 -1 -1 -1 -2 -2 -2 -2 -2 -2 -2 -2 -2 -2 -2 -2 -2 -3 -3 -3 -3 -3 -3 -3 -3 -3 -3 -3 -3 -3 -4 -4 -4 -4 -4 -4 -4 -4 -5 -5 -5 -5 -5 -5 -5 -5 -5 -5 -5 -5 -5 -5
2 2 1 1 1 0 0 -0 -0 -0 -1 -1 -1 -1 -1 -1 -2 -2 -2 -2 -2 -2 -2 -2 -2 -2 -2 -3 -3 -3 -3 -3 -3 -3 -3 -3 -3 -3 -3 -3 -3 -3 -3 -3 -4 -4 -4 -4 -4 -4 -4 -4 -4 -5 -5 -5 -5 -5 -5 -5 -5 -5 -5 -5 -5 -5 -5 -5 -5
1 1 1 0 -0 -0 -0 -1 -1 -1 -1 -1 -1 -2 -2 -2 -2 -2 -2 -2 -2 -2 -2 -2 -2 -2 -3 -3 -3 -3 -3 -3 -3 -3 -3 -3 -3 -3 -3 -3 -3 -3 -4 -4 -4 -4 -5 -5 -5 -5 -5 -5 -5 -5 -5 -5 -5 -5 -6 -6 -6 -6 -6 -6 -6 -6 -6 -5 -5
1 1 0 -0 -0 -1 -1 -1 -1 -1 -1 -2 -2 -2 -2 -2 -2 -2 -2 -2 -2 -2 -2 -2 -3 -3 -3 -3 -3 -3 -3 -3 -3 -3 -3 -3 -3 -3 -3 -3 -4 -4 -5 -5 -5 -5 -5 -5 -5 -5 -5 -5 -5 -5 -6 -6 -6 -6 -6 -6 -6 -6 -6 -6 -6 -6 -6 -6 -5
1 1 0 -0 -0 -1 -1 -1 -1 -1 -2 -2 -2 -2 -2 -2 -2 -2 -2 -3 -3 -3 -3 -3 -3 -3 -3 -3 -3 -3 -3 -4 -4 -4 -4 -4 -4 -4 -4 -4 -4 -5 -5 -5 -5 -5 -5 -5 -5 -5 -5 -6 -6 -6 -6 -6 -6 -6 -6 -6 -6 -6 -6 -6 -6 -6 -6 -6 -6
1 1 0 -0 -1 -1 -1 -1 -1 -2 -2 -2 -2 -2 -2 -2 -3 -3 -3 -3 -3 -3 -3 -3 -3 -3 -4 -4 -4 -4 -4 -4 -4 -4 -4 -5 -5 -5 -5 -5 -5 -5 -5 -5 -5 -5 -5 -5 -5 -6 -6 -6 -6 -6 -6 -6 -6 -6 -6 -6 -6 -6 -6 -6 -6 -6 -6 -6 -6
1 0 -0 -1 -1 -1 -1 -1 -2 -2 -2 -2 -2 -3 -3 -3 -3 -3 -4 -4 -4 -4 -4 -4 -4 -4 -4 -4 -4 -5 -5 -5 -5 -5 -5 -5 -5 -5 -5 -5 -5 -5 -5 -5 -5 -5 -5 -5 -6 -6 -6 -6 -6 -6 -6 -6 -6 -6 -6 -7 -7 -7 -7 -7 -7 -7 -7 -6 -6
0 -0 -0 -1 -1 -1 -1 -2 -2 -2 -2 -3 -3 -3 -3 -3 -4 -4 -4 -4 -4 -4 -4 -4 -4 -4 -4 -4 -4 -5 -5 -5 -5 -5 -5 -5 -5 -5 -5 -5 -5 -5 -5 -5 -5 -5 -5 -5 -6 -6 -6 -6 -6 -6 -6 -7 -7 -7 -7 -7 -7 -7 -7 -7 -7 -7 -7 -7 -7
-0 -0 -1 -1 -1 -1 -2 -2 -2 -3 -3 -3 -3 -4 -4 -4 -4 -4 -4 -4 -4 -4 -4 -4 -4 -4 -4 -4 -4 -4 -4 -4 -4 -5 -5 -5 -5 -5 -5 -5 -5 -5 -5 -5 -5 -5 -5 -6 -6 -6 -6 -6 -6 -7 -7 -7 -7 -7 -7 -7 -7 -7 -7 -7 -7 -7 -7 -7 -7
-1 -1 -1 -1 -1 -2 -2 -3 -3 -3 -3 -4 -4 -4 -4 -4 -4 -4 -4 -4 -4 -4 -4 -4 -4 -4 -4 -4 -4 -4 -4 -4 -4 -4 -5 -5 -5 -5 -5 -5 -6 -6 -6 -6 -6 -6 -6 -6 -6 -6 -6 -7 -7 -7 -7 -7 -7 -7 -7 -8 -8 -8 -8 -7 -7 -7 -7 -7 -7
-1 -1 -1 -1 -2 -2 -3 -3 -3 -3 -4 -4 -4 -4 -4 -4 -4 -4 -4 -4 -4 -4 -4 -4 -4 -4 -4 -4 -4 -4 -4 -4 -4 -5 -5 -5 -5 -6 -6 -6 -6 -6 -6 -6 -6 -6 -6 -6 -6 -6 -7 -7 -7 -7 -7 -7 -7 -8 -8 -8 -8 -8 -8 -8 -8 -8 -8 -8 -8
-1 -1 -1 -2 -2 -3 -3 -3 -3 -3 -4 -4 -4 -4 -4 -4 -4 -4 -4 -4 -4 -4 -4 -4 -4 -4 -4 -4 -4 -4 -4 -4 -5 -5 -5 -5 -6 -6 -6 -6 -6 -6 -6 -6 -6 -6 -6 -6 -7 -7 -7 -7 -7 -7 -8 -8 -8 -8 -8 -8 -9 -9 -9 -8 -8 -8 -8 -8 -8
-1 -1 -2 -2 -2 -3 -3 -3 -3 -4 -4 -4 -4 -4 -4 -4 -4 -4 -4 -4 -3 -4 -4 -4 -4 -4 -4 -4 -4 -4 -4 -5 -5 -5 -5 -5 -6 -6 -6 -6 -6 -6 -6 -7 -7 -7 -7 -7 -7 -7 -7 -7 -7 -8 -8 -8 -8 -8 -9 -9 -9 -9 -9 -9 -9 -9 -9 -9 -9
-1 -2 -2 -2 -3 -3 -3 -4 -4 -4 -4 -4 -4 -4 -3 -3 -3 -3 -3 -3 -3 -4 -4 -4 -4 -4 -4 -4 -4 -4 -4 -5 -5 -5 -5 -6 -6 -6 -6 -6 -6 -6 -7 -7 -7 -7 -7 -7 -7 -7 -7 -8 -8 -8 -8 -8 -9 -9 -9 -9 -10 -10 -10 -10 -10 -10 -10 -10 -10
-2 -2 -3 -3 -3 -3 -4 -4 -4 -4 -4 -4 -3 -3 -3 -3 -3 -3 -3 -3 -4 -4 -4 -4 -4 -4 -4 -4 -4 -5 -5 -5 -5 -5 -5 -6 -6 -6 -6 -6 -6 -6 -7 -7 -7 -7 -7 -7 -7 -8 -8 -8 -8 -8 -8 -9 -9 -9 -10 -10 -10 -10 -10 -10 -10 -10 -10 -10 -10
-2 -3 -3 -3 -4 -4 -4 -4 -4 -3 -3 -3 -3 -3 -3 -3 -3 -3 -3 -3 -4 -4 -4 -4 -4 -4 -4 -4 -4 -5 -5 -5 -5 -5 -5 -6 -6 -6 -6 -6 -6 -6 -7 -7 -7 -7 -7 -7 -7 -8 -8 -8 -8 -8 -9 -9 -9 -10 -10 -10 -10 -10 -11 -11 -11 -11 -11 -11 -11
-3 -3 -3 -4 -4 -4 -4 -3 -3 -3 -3 -4 -4 -4 -4 -4 -3 -4 -4 -4 -4 -4 -4 -4 -4 -4 -4 -4 -4 -5 -5 -5 -5 -5 -6 -6 -6 -6 -6 -6 -6 -6 -7 -7 -7 -7 -7 -7 -7 -8 -8 -8 -8 -9 -9 -9 -10 -10 -10 -10 -11 -11 -11 -11 -11 -11 -11 -11 -11
Height
1521 1521 1520 1519 1518 1518 1517 1516 1516 1515 1514 1513 1512 1512 1511 1510 1509 1508 1507 1506 1506 1505 1505 1504 1503 1502 1501 1500 1499 1498 1497 1496 1496 1495 1493 1492 1492 1491 1491 1491 1492 1491 1491 1491 1490 1489 1488 1488 1487 1486 1486 1485 1485 1484 1483 1483 1483 1482 1482 1481 1481 1480 1479 1479 1478 1479 1479 1480 1480
1520 1520 1519 1518 1517 1516 1516 1515 1514 1513 1512 1511 1511 1510 1509 1508 1507 1506 1506 1505 1505 1504 1503 1501 1501 1500 1499 1498 1497 1496 1495 1494 1493 1492 1492 1491 1491 1491 1491 1490 1490 1490 1489 1488 1488 1487 1486 1486 1485 1484 1483 1483 1482 1481 1481 1481 1481 1480 1479 1478 1477 1477 1477 1477 1477 1477 1478 1478 1478
1519 1518 1517 1517 1516 1516 1515 1514 1513 1511 1511 1510 1509 1508 1508 1507 1506 1505 1504 1503 1503 1501 1501 1499 1498 1497 1497 1496 1495 1495 1494 1493 1492 1491 1491 1490 1490 1489 1489 1489 1488 1487 1487 1486 1485 1485 1484 1483 1482 1482 1481 1480 1480 1479 1478 1478 1478 1477 1476 1475 1475 1475 1475 1475 1475 1476 1476 1476 1476
1518 1517 1516 1516 1515 1514 1513 1512 1511 1510 1509 1508 1507 1506 1506 1505 1504 1504 1503 1502 1501 1499 1498 1497 1496 1496 1495 1494 1494 1493 1492 1491 1491 1490 1489 1488 1488 1488 1487 1487 1486 1485 1484 1484 1483 1482 1482 1481 1480 1480 1479 1478 1477 1477 1476 1476 1474 1473 1472 1471 1472 1472 1472 1473 1473 1474 1474 1474 1474
1517 1516 1516 1515 1514 1512 1511 1510 1509 1508 1507 1506 1505 1505 1504 1503 1502 1501 1501 1500 1498 1497 1496 1496 1495 1494 1493 1492 1492 1491 1490 1489 1489 1488 1487 1487 1486 1486 1485 1484 1483 1482 1482 1481 1481 1480 1479 1479 1478 1477 1476 1476 1475 1474 1474 1472 1471 1469 1469 1468 1469 1470 1470 1471 1471 1472 1472 1472 1472
1516 1515 1514 1513 1512 1510 1509 1508 1507 1506 1505 1505 1504 1503 1502 1501 1501 1499 1498 1497 1496 1496 1495 1494 1493 1492 1491 1491 1490 1489 1488 1487 1487 1486 1486 1485 1484 1483 1482 1481 1481 1480 1479 1479 1479 1478 1477 1476 1476 1475 1474 1473 1472 1471 1471 1470 1468 1466 1466 1466 1466 1467 1468 1469 1469 1470 1471 1470 1470
1514 1513 1512 1511 1510 1509 1508 1507 1506 1505 1504 1503 1502 1501 1501 1500 1499 1497 1496 1496 1495 1495 1494 1493 1492 1491 1490 1489 1488 1487 1486 1486 1485 1484 1483 1482 1481 1480 1480 1479 1478 1478 1477 1477 1476 1476 1475 1474 1473 1472 1471 1471 1470 1469 1468 1467 1466 1464 1463 1463 1464 1465 1466 1466 1467 1468 1468 1468 1468
1513 1512 1511 1511 1509 1508 1506 1506 1505 1504 1502 1501 1501 1500 1499 1498 1497 1496 1496 1495 1494 1493 1492 1491 1490 1489 1488 1487 1486 1485 1484 1483 1482 1481 1481 1480 1479 1478 1477 1477 1476 1476 1475 1475 1474 1473 1472 1472 1471 1469 1468 1468 1467 1466 1466 1465 1464 1462 1461 1461 1461 1463 1464 1465 1465 1466 1466 1466 1465
1512 1511 1511 1509 1508 1507 1506 1504 1503 1503 1501 1501 1500 1499 1498 1497 1496 1495 1494 1493 1492 1491 1490 1489 1488 1487 1486 1486 1485 1484 1482 1481 1480 1479 1478 1478 1477 1477 1476 1476 1475 1474 1473 1472 1472 1471 1471 1470 1468 1467 1466 1466 1465 1464 1464 1463 1462 1461 1460 1460 1460 1461 1462 1462 1463 1463 1463 1463 1463
1511 1511 1509 1508 1507 1506 1505 1503 1502 1501 1501 1499 1498 1497 1496 1495 1494 1493 1492 1491 1490 1489 1488 1487 1486 1486 1485 1484 1483 1482 1481 1479 1478 1478 1477 1476 1476 1476 1475 1474 1473 1472 1471 1471 1470 1470 1469 1468 1467 1466 1464 1464 1463 1462 1461 1461 1461 1460 1459 1458 1459 1459 1460 1461 1461 1461 1461 1461 1461
1511 1510 1509 1507 1506 1505 1504 1503 1501 1500 1499 1497 1496 1495 1494 1493 1491 1491 1490 1489 1488 1487 1486 1486 1485 1485 1484 1482 1481 1480 1479 1478 1477 1477 1476 1475 1475 1474 1473 1473 1472 1471 1470 1470 1469 1468 1467 1466 1465 1463 1462 1462 1461 1461 1460 1459 1459 1458 1457 1456 1457 1457 1458 1459 1459 1460 1460 1460 1460
1510 1509 1508 1507 1506 1504 1503 1502 1500 1499 1497 1496 1495 1493 1492 1491 1490 1490 1489 1488 1487 1487 1486 1485 1484 1483 1482 1481 1480 1479 1478 1477 1476 1476 1475 1474 1473 1473 1472 1471 1470 1470 1469 1468 1467 1466 1465 1464 1462 1461 1460 1460 1459 1459 1458 1458 1457 1456 1455 1455 1455 1456 1457 1457 1458 1458 1457 1457 1457
1509 1508 1507 1506 1505 1503 1502 1501 1499 1498 1496 1495 1494 1493 1492 1491 1490 1490 1489 1488 1487 1486 1486 1484 1483 1482 1481 1480 1479 1478 1477 1476 1475 1474 1473 1472 1472 1471 1470 1469 1469 1468 1467 1466 1465 1464 1463 1461 1460 1459 1458 1458 1457 1457 1457 1456 1456 1455 1454 1454 1454 1455 1455 1455 1455 1455 1454 1454 1453
1508 1507 1506 1505 1504 1502 1501 1500 1499 1497 1496 1495 1494 1493 1492 1491 1490 1489 1488 1487 1486 1485 1484 1483 1482 1481 1481 1480 1479 1477 1476 1475 1474 1473 1472 1471 1470 1469 1469 1468 1467 1466 1465 1464 1463 1461 1460 1459 1458 1457 1456 1456 1456 1456 1456 1456 1455 1454 1453 1453 1453 1453 1453 1453 1452 1452 1451 1451 1451
1508 1506 1506 1504 1503 1502 1501 1499 1498 1497 1496 1495 1494 1492 1491 1490 1489 1488 1487 1486 1485 1484 1483 1482 1481 1481 1480 1479 1477 1476 1474 1473 1472 1471 1470 1469 1469 1468 1467 1466 1465 1463 1462 1461 1460 1459 1458 1457 1456 1456 1456 1455 1455 1455 1455 1454 1454 1453 1452 1451 1451 1451 1451 1451 1450 1450 1450 1449 1449
1507 1506 1505 1504 1502 1501 1500 1498 1497 1496 1495 1494 1492 1491 1491 1490 1489 1487 1486 1485 1484 1483 1482 1481 1481 1479 1478 1477 1475 1473 1472 1471 1470 1470 1469 1468 1468 1467 1465 1464 1462 1461 1460 1459 1458 1458 1457 1456 1456 1455 1455 1454 1454 1453 1453 1452 1451 1451 1451 1450 1450 1449 1449 1449 1448 1448 1447 1447 1446
1506 1505 1504 1503 1502 1500 1499 1497 1496 1495 1494 1492 1491 1491 1490 1489 1488 1487 1486 1484 1483 1481 1480 1479 1478 1477 1475 1474 1472 1471 1471 1470 1469 1469 1468 1467 1466 1465 1463 1461 1460 1459 1458 1458 1457 1456 1456 1455 1455 1454 1454 1453 1453 1452 1451 1451 1450 1450 1450 1449 1449 1448 1448 1447 1446 1446 1446 1445 1445
1505 1504 1503 1502 1501 1499 1497 1496 1494 1493 1492 1491 1491 1490 1489 1488 1487 1486 1484 1483 1481 1480 1478 1477 1476 1475 1473 1472 1471 1470 1470 1469 1468 1467 1466 1465 1464 1462 1461 1460 1459 1458 1457 1457 1456 1455 1454 1454 1453 1453 1453 1452 1452 1452 1451 1450 1450 1449 1449 1448 1448 1447 1447 1446 1446 1445 1445 1445 1444
1504 1503 1502 1501 1499 1497 1496 1494 1493 1492 1491 1491 1490 1489 1488 1486 1486 1484 1483 1481 1480 1479 1477 1476 1475 1473 1472 1471 1471 1470 1469 1468 1467 1466 1465 1463 1462 1461 1460 1459 1458 1457 1457 1456 1455 1455 1454 1453 1453 1452 1452 1452 1451 1451 1450 1450 1449 1449 1448 1447 1447 1446 1446 1445 1445 1444 1444 1444 1443
1503 1502 1501 1499 1498 1496 1495 1493 1492 1491 1490 1489 1488 1487 1486 1485 1484 1483 1481 1480 1479 1477 1476 1475 1474 1472 1471 1471 1470 1469 1468 1467 1466 1465 1464 1462 1461 1460 1460 1459 1458 1457 1456 1456 1455 1454 1453 1452 1452 1451 1451 1450 1450 1449 1449 1448 1448 1447 1447 1446 1446 1445 1445 1444 1444 1443 1443 1443 1443
1502 1501 1499 1498 1496 1495 1493 1492 1491 1490 1489 1488 1486 1486 1485 1483 1482 1481 1480 1479 1477 1476 1475 1474 1472 1471 1471 1470 1469 1468 1467 1466 1466 1465 1463 1462 1461 1460 1460 1459 1458 1457 1456 1455 1454 1453 1452 1451 1451 1450 1449 1448 1448 1447 1447 1446 1446 1446 1445 1445 1444 1444 1443 1443 1443 1442 1442 1442 1441
1500 1499 1497 1496 1495 1493 1492 1491 1490 1489 1487 1486 1485 1484 1483 1482 1481 1480 1479 1477 1476 1475 1474 1472 1471 1471 1470 1469 1468 1467 1466 1465 1465 1464 1463 1461 1461 1460 1459 1458 1457 1456 1455 1454 1453 1453 1452 1451 1450 1449 1449 1448 1447 1446 1446 1446 1445 1445 1444 1443 1443 1442 1442 1442 1441 1441 1441 1440 1440
1498 1497 1496 1494 1493 1491 1491 1490 1488 1487 1486 1485 1484 1483 1481 1481 1479 1478 1477 1476 1475 1474 1473 1471 1471 1470 1469 1468 1467 1466 1465 1464 1463 1462 1461 1461 1460 1458 1457 1457 1456 1455 1454 1453 1452 1452 1451 1451 1450 1449 1448 1448 1447 1446 1446 1445 1444 1444 1443 1442 1442 1441 1441 1441 1441 1440 1440 1439 1439
1497 1495 1494 1493 1492 1491 1490 1488 1487 1486 1485 1483 1482 1481 1481 1480 1478 1477 1476 1475 1474 1473 1472 1471 1470 1469 1468 1467 1466 1465 1464 1463 1462 1461 1461 1460 1459 1458 1457 1456 1455 1454 1453 1452 1451 1451 1450 1450 1449 1448 1448 1447 1446 1446 1445 1445 1444 1443 1442 1442 1441 1441 1440 1440 1440 1440 1439 1439 1438
1495 1494 1493 1491 1491 1490 1488 1487 1486 1485 1484 1483 1482 1481 1480 1479 1478 1476 1475 1474 1473 1472 1471 1470 1469 1468 1467 1466 1465 1464 1463 1462 1461 1460 1459 1458 1458 1457 1456 1455 1454 1453 1452 1451 1451 1450 1449 1449 1448 1448 1447 1446 1446 1445 1445 1444 1444 1443 1442 1442 1441 1440 1440 1439 1439 1439 1438 1438 1437
1494 1493 1491 1490 1490 1489 1488 1486 1485 1484 1484 1483 1482 1481 1480 1478 1477 1476 1475 1473 1472 1471 1470 1469 1468 1467 1466 1465 1464 1463 1462 1461 1461 1460 1459 1458 1457 1456 1455 1454 1453 1452 1451 1451 1450 1449 1449 1448 1447 1447 1446 1446 1445 1445 1444 1444 1443 1442 1442 1441 1441 1440 1439 1439 1438 1438 1437 1437 1437
1493 1491 1491 1490 1489 1488 1487 1486 1485 1484 1483 1483 1481 1480 1479 1478 1476 1475 1474 1473 1472 1471 1470 1469 1467 1466 1466 1465 1464 1462 1461 1461 1460 1459 1458 1457 1456 1455 1454 1453 1452 1451 1451 1450 1449 1448 1448 1447 1447 1446 1446 1445 1445 1444 1444 1443 1442 1442 1441 1441 1440 1440 1439 1438 1438 1438 1437 1437 1437
1492 1491 1490 1489 1489 1488 1487 1486 1485 1484 1483 1482 1481 1480 1478 1477 1476 1475 1474 1472 1471 1470 1469 1468 1467 1466 1465 1464 1463 1462 1461 1460 1459 1458 1457 1456 1455 1454 1453 1452 1451 1451 1450 1449 1449 1448 1448 1447 1447 1446 1446 1445 1444 1444 1443 1442 1442 1441 1441 1440 1439 1439 1439 1438 1438 1437 1437 1436 1436
1492 1491 1490 1489 1488 1487 1487 1486 1485 1484 1482 1481 1480 1479 1478 1476 1475 1474 1473 1472 1471 1470 1468 1467 1466 1465 1464 1463 1462 1461 1460 1459 1458 1457 1456 1456 1455 1454 1453 1452 1451 1451 1450 1449 1449 1448 1448 1447 1446 1446 1445 1445 1444 1443 1442 1442 1441 1441 1440 1439 1439 1438 1438 1437 1437 1436 1435 1435 1434
1491 1491 1490 1488 1487 1486 1486 1485 1484 1483 1482 1481 1480 1478 1477 1476 1475 1473 1472 1471 1470 1469 1468 1466 1465 1464 1463 1462 1461 1460 1459 1459 1458 1457 1456 1455 1455 1454 1453 1452 1451 1451 1450 1449 1448 1448 1447 1446 1446 1445 1445 1444 1443 1442 1442 1441 1440 1440 1439 1438 1438 1437 1437 1436 1436 1435 1434 1434 1433
1490 1489 1489 1488 1487 1486 1485 1484 1483 1482 1481 1480 1479 1478 1476 1475 1474 1473 1472 1471 1470 1469 1467 1466 1465 1464 1463 1462 1461 1460 1459 1458 1457 1456 1456 1455 1455 1454 1453 1452 1452 1451 1449 1448 1448 1447 1447 1446 1446 1445 1444 1443 1442 1442 1441 1440 1440 1439 1438 1437 1437 1436 1436 1435 1435 1434 1434 1433 1432
1489 1488 1488 1487 1486 1485 1484 1483 1482 1481 1480 1479 1478 1477 1476 1475 1474 1473 1471 1471 1469 1468 1467 1466 1465 1464 1462 1461 1461 1460 1459 1458 1458 1457 1456 1456 1455 1454 1454 1453 1452 1451 1449 1448 1448 1447 1446 1446 1445 1444 1444 1443 1442 1441 1440 1440 1439 1438 1437 1436 1436 1436 1435 1435 1434 1433 1433 1432 1431
1488 1487 1486 1486 1485 1484 1483 1483 1482 1481 1480 1478 1477 1476 1476 1474 1473 1472 1471 1470 1469 1468 1466 1466 1464 1463 1462 1461 1461 1461 1460 1460 1459 1458 1457 1456 1455 1454 1453 1453 1453 1451 1449 1448 1447 1446 1446 1445 1445 1444 1443 1442 1441 1441 1440 1439 1438 1437 1436 1436 1435 1435 1434 1434 1433 1433 1432 1431 1430
1487 1486 1486 1485 1484 1484 1483 1482 1481 1480 1479 1478 1477 1476 1475 1474 1473 1472 1471 1470 1469 1468 1466 1466 1465 1464 1463 1462 1462 1461 1461 1460 1459 1458 1457 1456 1455 1454 1453 1452 1452 1451 1448 1448 1447 1446 1446 1445 1444 1443 1442 1442 1441 1440 1439 1438 1437 1436 1435 1435 1434 1434 1433 1433 1432 1431 1430 1429 1428
1486 1486 1485 1484 1484 1483 1482 1481 1481 1480 1479 1478 1477 1476 1475 1474 1473 1471 1471 1470 1469 1468 1467 1466 1466 1465 1464 1463 1463 1462 1461 1460 1458 1457 1456 1456 1455 1454 1453 1452 1452 1450 1448 1447 1446 1446 1445 1444 1443 1442 1442 1441 1440 1439 1438 1436 1436 1435 1434 1433 1433 1432 1431 1431 1430 1429 1428 1427 1426
1486 1485 1484 1484 1483 1483 1482 1481 1480 1479 1478 1477 1476 1475 1474 1473 1472 1472 1471 1470 1470 1469 1468 1467 1466 1465 1464 1463 1462 1461 1460 1459 1458 1457 1456 1455 1454 1453 1452 1451 1451 1450 1448 1446 1446 1445 1444 1443 1442 1441 1441 1439 1438 1437 1436 1435 1434 1433 1433 1432 1431 1430 1430 1429 1428 1427 1426 1425 1424
1485 1484 1484 1483 1483 1482 1481 1481 1480 1479 1478 1477 1476 1476 1475 1474 1473 1472 1471 1471 1470 1469 1468 1467 1466 1465 1464 1463 1462 1461 1460 1459 1457 1456 1455 1454 1453 1452 1451 1451 1450 1449 1447 1446 1444 1443 1442 1441 1441 1440 1439 1438 1437 1436 1435 1434 1433 1432 1431 1430 1429 1429 1428 1427 1426 1425 1424 1423 1422
1485 1484 1483 1483 1482 1482 1481 1480 1480 1479 1478 1477 1476 1476 1475 1474 1473 1472 1471 1470 1469 1468 1467 1466 1465 1464 1463 1462 1461 1460 1459 1458 1457 1456 1455 1453 1453 1452 1451 1450 1449 1448 1447 1445 1443 1442 1441 1440 1439 1438 1437 1437 1436 1435 1434 1432 1431 1431 1430 1429 1428 1427 1426 1425 1424 1423 1422 1421 1420
1484 1483 1483 1482 1482 1481 1481 1480 1480 1479 1478 1477 1476 1476 1475 1474 1473 1472 1471 1470 1469 1468 1467 1466 1465 1464 1463 1461 1460 1459 1458 1457 1456 1456 1454 1453 1452 1451 1450 1449 1447 1446 1446 1444 1443 1441 1440 1439 1438 1437 1436 1435 1435 1434 1432 1431 1430 1429 1428 1427 1426 1425 1424 1423 1422 1421 1420 1419 1418
1484 1483 1482 1482 1481 1481 1481 1480 1480 1479 1478 1477 1476 1475 1474 1473 1472 1471 1471 1470 1469 1467 1466 1465 1464 1463 1462 1461 1460 1459 1457 1456 1456 1455 1453 1452 1451 1450 1449 1448 1446 1446 1445 1443 1442 1441 1439 1438 1436 1436 1435 1434 1433 1432 1431 1430 1429 1428 1427 1426 1425 1424 1422 1421 1420 1419 1418 1417 1416
1483 1482 1482 1481 1481 1481 1481 1480 1480 1479 1478 1477 1476 1475 1474 1473 1472 1471 1470 1469 1468 1467 1466 1465 1464 1462 1461 1460 1459 1458 1457 1456 1455 1454 1453 1451 1450 1449 1448 1447 1446 1445 1444 1443 1441 1440 1438 1437 1436 1435 1434 1433 1432 1431 1430 1429 1428 1427 1426 1425 1424 1422 1421 1419 1418 1417 1416 1415 1414
Wind_Speed
19 20 22 23 23 24 23 23 23 24 25 26 26 27 27 27 26 25 23 21 21 21 21 21 22 22 22 22 22 23 24 25 26 27 28 28 27 26 27 28 27 26 26 26 25 25 24 24 24 24 25 25 25 25 24 23 23 22 22 22 22 22 21 19 18 18 18 18 19
22 23 24 24 24 23 22 22 23 24 25 26 26 26 25 24 23 22 20 19 19 20 22 22 23 23 24 24 25 26 28 30 31 31 30 29 29 29 29 28 26 26 26 26 25 25 24 24 24 25 25 25 26 26 25 24 23 23 23 23 23 22 21 20 19 19 20 20 20
23 23 22 22 21 20 20 21 23 24 25 26 26 26 25 24 22 21 20 20 20 21 22 23 24 25 26 29 31 32 34 34 34 32 31 30 30 29 27 26 26 26 25 25 25 25 25 25 25 25 26 26 26 26 26 25 25 24 24 24 22 21 20 20 20 21 21 22 23
20 19 18 17 17 19 20 22 24 25 26 27 27 27 26 25 24 23 23 22 22 23 23 25 26 28 31 34 36 36 36 34 33 31 30 29 26 25 25 25 26 25 25 24 25 25 25 25 25 26 26 26 26 27 26 26 26 26 24 23 21 20 20 20 21 22 23 24 24
17 16 16 17 19 21 23 25 26 27 28 28 27 26 25 24 24 24 24 24 24 25 27 29 32 33 35 35 35 34 33 32 31 29 27 24 23 23 24 24 24 24 24 24 25 25 26 26 26 26 27 27 27 27 27 28 27 26 23 21 20 19 20 21 22 23 23 24 24
17 18 19 21 23 25 27 28 30 30 30 28 26 25 24 23 22 22 23 24 26 29 31 33 35 35 35 34 33 32 31 31 29 26 24 23 23 24 24 24 23 24 24 24 25 25 26 26 26 27 28 28 27 28 29 29 27 25 22 20 19 18 19 20 21 22 23 22 22
20 22 23 25 26 28 29 31 31 30 28 26 23 22 21 21 22 23 25 27 30 32 33 34 35 34 33 32 31 30 29 28 26 24 23 23 24 24 25 25 26 26 26 25 25 25 26 26 27 28 28 28 29 30 31 29 25 22 20 19 18 18 19 19 20 20 20 20 20
23 24 25 26 27 28 29 29 28 25 23 21 20 20 21 22 24 27 29 31 33 34 35 34 34 33 32 30 29 27 25 24 23 22 23 23 25 26 28 28 28 28 27 26 26 26 26 26 28 28 28 28 30 32 33 29 24 20 19 19 19 19 20 20 19 19 19 20 22
24 26 26 27 27 26 26 25 22 20 19 19 20 21 23 25 27 29 31 32 33 33 33 32 31 30 28 26 24 22 21 21 21 22 24 25 27 28 29 28 27 27 27 26 26 26 26 27 28 28 27 27 30 32 32 27 22 19 18 18 19 19 19 20 21 21 22 23 25
25 25 25 25 24 23 22 21 20 19 19 20 22 24 26 27 28 28 28 28 29 28 28 27 26 24 23 21 20 20 21 22 23 25 26 27 27 27 26 25 25 26 26 26 26 26 26 26 26 27 27 28 30 32 30 24 20 19 19 19 18 17 18 19 21 22 23 24 25
24 23 22 22 21 21 20 20 20 20 21 22 25 26 27 26 25 25 24 24 23 23 23 22 21 20 19 19 20 22 23 24 25 26 26 26 25 25 25 25 26 26 26 26 26 26 25 24 24 25 27 30 31 30 27 22 20 20 20 18 17 17 17 18 20 21 22 22 22
21 21 20 20 21 20 20 20 20 20 21 23 24 25 24 23 22 21 20 20 19 19 19 18 17 18 20 21 22 23 24 24 24 24 24 24 24 25 25 26 26 26 26 26 26 25 24 23 23 24 26 29 30 27 23 20 19 19 18 17 16 16 17 18 19 19 19 19 20
20 20 20 20 21 21 20 20 20 20 20 21 21 21 20 19 18 17 17 16 16 17 17 17 18 20 22 23 23 23 23 22 22 22 23 23 24 25 25 26 26 26 26 25 25 23 22 20 20 21 22 24 23 21 18 17 17 17 16 16 15 15 16 17 18 19 21 22 23
20 20 20 21 21 21 20 20 19 19 18 18 18 18 17 16 15 15 14 15 16 17 18 20 21 21 22 22 22 21 21 21 21 22 23 23 24 24 24 24 24 23 23 22 21 20 19 19 18 18 18 18 17 14 13 13 15 15 15 15 15 16 16 17 19 21 23 25 26
20 20 21 21 21 21 21 20 18 17 17 17 17 16 16 15 15 15 15 16 18 19 20 20 21 20 20 19 19 19 20 21 22 22 23 23 23 23 22 21 20 20 19 18 17 17 17 18 17 16 15 13 11 10 10 11 13 13 14 15 15 16 17 18 20 22 24 25 26
20 21 21 21 21 21 20 19 17 16 16 16 17 16 16 16 16 16 17 18 18 19 18 18 18 18 18 17 18 19 21 22 23 22 21 21 21 20 18 17 16 15 14 13 12 11 11 11 10 10 10 10 9 10 11 13 14 15 15 16 16 17 18 19 20 21 21 21 22
21 21 22 22 21 20 19 17 16 16 17 17 18 18 18 18 19 19 18 18 18 18 18 18 17 18 18 20 21 22 23 23 22 20 19 18 16 14 13 12 12 11 10 8 7 6 5 5 7 8 10 12 12 12 14 16 18 18 18 18 19 19 19 18 18 18 17 16 16
22 22 22 22 20 19 17 16 16 17 18 19 20 20 21 21 21 21 20 20 20 21 21 21 21 21 22 23 24 24 22 20 18 16 14 12 10 9 9 10 11 9 7 6 5 5 6 8 11 13 15 16 17 17 17 18 20 20 21 20 20 19 18 18 17 14 12 11 10
23 23 22 21 19 17 16 16 17 18 20 21 22 23 23 23 24 24 25 25 26 26 26 26 25 25 25 25 24 22 20 16 14 12 10 9 8 9 9 10 10 10 9 9 9 10 12 14 16 18 19 20 20 20 20 19 19 19 19 18 16 15 15 15 14 12 10 10 11
23 22 21 19 17 17 17 18 19 21 23 24 25 25 26 26 27 28 28 29 29 29 28 28 27 27 26 24 22 20 18 16 14 12 12 11 12 13 14 14 14 15 15 15 15 16 16 17 17 18 19 20 20 19 18 17 17 16 15 13 12 11 12 12 13 14 15 17 18
22 20 19 17 17 17 18 20 22 25 26 27 27 27 28 28 29 29 29 29 29 28 27 26 26 24 23 22 21 20 20 19 19 19 19 19 19 20 21 21 21 20 20 19 18 17 16 15 15 15 15 15 14 14 13 13 13 13 14 14 15 16 17 18 20 21 23 24 24
19 18 17 17 16 18 20 24 26 28 28 28 28 28 28 28 28 28 27 26 25 24 24 23 22 22 21 21 21 22 22 23 24 25 25 25 25 26 26 25 24 23 21 20 18 17 16 15 14 13 13 13 13 13 14 15 17 19 20 22 23 24 24 25 25 25 25 25 25
17 17 17 16 18 21 25 28 29 29 29 28 28 28 27 27 26 25 24 23 22 22 22 21 21 21 21 21 22 23 24 25 26 26 26 26 26 26 25 24 22 21 20 19 19 18 18 17 17 17 17 18 18 20 21 23 24 25 25 26 26 26 25 25 24 24 23 22 22
17 17 18 19 22 26 28 30 29 28 28 28 27 26 25 24 23 23 22 22 21 21 21 21 21 21 21 22 22 23 23 24 25 24 24 24 24 23 22 21 20 20 20 20 20 21 21 21 21 21 22 22 23 24 25 26 26 26 26 26 25 24 24 23 21 20 19 18 18
18 19 21 23 25 27 29 29 28 28 27 26 25 24 23 22 22 22 22 22 22 22 22 22 22 22 22 22 22 23 23 23 23 23 23 22 22 21 21 21 21 21 22 22 22 22 22 22 22 22 23 23 24 24 24 25 24 24 24 23 23 22 21 20 19 17 17 17 17
19 21 23 25 26 26 26 26 27 26 26 24 23 22 22 22 22 22 22 23 22 22 22 22 22 22 22 22 22 22 22 22 22 22 22 22 22 22 22 22 22 22 22 22 21 21 21 21 21 21 22 22 22 23 23 23 23 23 22 22 21 20 19 19 18 18 18 18 19
20 21 22 22 23 23 24 25 25 25 24 23 22 22 22 22 22 22 22 22 22 22 22 22 21 21 21 20 20 20 20 20 20 20 20 20 20 20 20 20 19 19 19 19 19 19 20 20 20 21 21 22 22 23 24 24 24 24 23 22 20 19 18 18 19 19 20 20 20
19 19 19 20 21 22 23 25 25 24 24 23 22 22 22 22 22 22 21 21 21 21 21 21 20 20 19 19 18 18 17 18 18 18 18 19 19 19 19 19 18 18 18 18 18 18 19 20 20 21 21 22 23 24 25 25 25 25 24 23 21 19 18 18 19 20 20 20 20
18 19 20 20 22 23 24 25 24 24 23 23 22 22 22 22 21 21 21 20 20 20 20 19 19 18 18 17 17 16 16 17 17 18 18 19 18 18 19 19 19 18 18 18 18 18 18 19 19 20 20 21 22 24 25 26 26 25 24 23 22 21 20 20 20 20 21 21 21
19 21 21 21 23 25 25 24 24 23 23 22 22 22 21 21 21 20 20 20 20 20 20 19 19 18 17 17 17 17 17 17 18 19 19 19 18 18 19 19 19 18 18 18 18 18 18 18 18 19 20 21 22 24 25 25 25 25 24 23 23 22 21 21 21 21 21 21 21
21 22 23 23 23 24 23 23 23 23 23 22 22 22 21 20 19 18 19 19 20 20 20 20 20 19 18 18 18 17 17 18 18 18 18 18 17 17 18 18 18 18 19 18 18 17 17 18 18 20 21 22 24 25 25 25 25 24 24 23 22 21 20 20 20 21 21 21 22
23 24 24 24 23 23 23 23 23 22 22 21 21 21 20 19 17 16 17 19 20 21 22 21 21 20 19 19 18 17 17 17 16 16 16 16 16 16 17 17 17 17 18 17 17 18 18 19 20 22 23 24 25 25 25 25 24 23 23 22 21 20 19 20 20 21 21 22 22
24 25 25 24 23 23 22 22 22 21 20 20 19 20 20 19 17 16 17 18 20 21 22 22 21 21 20 19 18 16 15 15 15 15 15 15 15 17 17 17 15 15 17 17 18 19 20 21 22 23 24 24 24 24 24 23 23 22 21 20 19 18 19 20 20 21 21 21 21
25 25 24 23 22 22 21 20 20 19 18 18 18 19 19 19 19 18 18 18 20 21 21 21 21 20 19 18 17 15 15 15 15 15 15 16 16 18 18 17 14 15 17 18 19 20 21 22 22 22 23 23 23 23 23 22 22 22 21 19 18 18 18 19 20 20 20 20 20
25 24 23 22 21 20 19 18 18 17 17 17 18 19 20 20 19 19 18 18 19 19 20 19 19 18 18 17 16 16 16 16 16 16 16 16 17 18 18 17 14 15 17 19 20 21 21 21 21 21 21 22 22 23 23 23 23 23 22 20 19 18 18 18 19 19 20 19 20
23 22 21 20 19 18 17 17 17 18 18 18 19 20 20 19 19 17 17 17 17 17 18 18 18 18 17 17 17 17 17 17 17 17 17 16 17 18 18 17 15 16 18 20 21 22 22 22 21 21 22 22 23 24 24 25 25 25 24 22 20 19 18 18 19 19 20 20 21
20 20 19 18 17 16 16 17 18 18 18 19 19 19 19 18 17 16 15 16 16 17 17 18 18 18 18 17 17 17 18 17 17 17 17 16 17 17 18 18 18 18 20 21 23 23 23 22 22 22 22 23 24 24 25 26 26 26 25 23 21 20 19 19 20 20 21 21 21
18 17 17 16 16 15 16 16 17 18 18 18 18 18 18 17 16 16 16 16 17 18 18 18 18 18 18 17 17 18 18 18 17 17 17 18 18 18 18 19 20 20 21 22 23 23 23 22 22 22 22 23 24 24 25 26 26 26 24 23 21 21 20 21 21 21 21 21 21
16 16 15 15 15 15 14 15 15 16 17 17 17 17 17 17 16 16 16 17 18 18 19 19 18 18 18 18 18 18 18 18 18 18 19 19 19 19 19 20 21 21 21 22 23 23 23 22 22 22 22 23 23 24 24 25 26 25 23 22 21 21 22 23 24 23 22 21 20
15 15 15 14 14 13 13 13 14 15 16 17 17 17 17 17 17 17 17 18 18 19 19 19 19 19 19 18 18 18 19 19 19 20 20 20 21 20 20 21 21 22 22 22 23 23 23 23 23 23 23 24 23 23 24 25 25 25 23 22 21 22 24 25 26 25 24 22 20
14 14 14 13 12 12 12 13 14 15 16 16 17 17 17 17 17 17 17 18 19 19 20 20 20 20 20 19 19 19 19 20 20 20 20 20 21 21 21 21 22 22 21 21 22 23 24 24 25 25 24 24 23 23 23 25 25 24 23 23 23 24 25 27 27 26 25 22 20
Wind_Direction
282 283 283 281 281 281 284 288 293 297 300 301 302 302 302 301 299 296 294 292 289 286 283 280 278 276 275 273 271 269 267 265 263 262 260 260 262 269 279 289 291 289 284 282 280 279 278 276 274 272 268 265 263 262 261 260 258 256 253 251 251 250 251 251 254 255 257 258 259
290 289 288 285 284 286 289 294 298 301 302 303 303 303 303 301 298 296 293 291 287 283 280 278 276 274 272 272 271 269 268 268 267 265 264 264 269 278 286 290 288 284 282 281 281 280 279 276 274 270 267 264 261 260 259 258 256 254 252 251 251 252 253 254 256 258 259 260 261
298 296 293 291 290 292 295 298 300 302 303 303 303 302 300 297 294 292 290 288 285 282 279 277 275 273 273 277 279 279 279 277 274 271 271 274 280 286 288 286 283 281 281 282 282 281 279 276 273 269 266 263 260 259 258 257 255 253 252 251 251 251 252 253 255 257 259 260 261
307 306 303 299 297 297 298 299 300 302 303 304 303 301 297 293 290 288 286 284 283 280 278 277 277 277 280 284 286 287 285 281 278 277 279 284 287 287 284 281 280 281 283 284 283 281 278 276 272 269 266 263 260 259 258 257 255 253 251 250 249 249 250 253 255 258 260 261 261
314 312 309 305 302 301 300 300 301 303 303 303 302 299 296 293 290 287 284 281 279 278 279 281 284 286 287 286 286 285 283 281 281 283 285 286 285 282 281 280 281 284 285 286 284 282 278 275 272 269 266 263 261 260 258 256 254 251 249 249 248 248 250 253 256 259 260 261 262
309 307 306 305 305 304 303 302 303 304 304 303 301 298 296 294 290 286 282 279 279 281 284 287 290 290 289 286 284 283 283 284 285 285 283 281 279 278 279 280 283 285 286 286 284 282 279 276 273 269 266 263 261 259 257 255 253 251 250 248 246 247 250 254 258 260 261 261 261
308 307 307 307 307 306 305 305 305 306 306 304 300 297 294 292 289 286 285 286 288 290 292 293 291 290 288 286 286 286 287 287 285 281 278 276 276 277 279 282 284 286 285 284 282 281 279 276 272 269 266 264 262 260 258 255 252 249 248 247 246 247 250 255 258 259 259 258 256
310 310 310 310 309 308 308 309 310 311 310 307 302 297 293 291 291 291 293 294 295 296 295 294 292 291 290 290 291 290 288 285 280 277 275 276 278 281 285 288 289 288 285 282 280 279 277 275 273 270 267 265 264 263 262 257 251 247 247 249 250 252 253 255 256 256 255 255 254
314 314 313 313 312 312 313 314 314 314 311 307 302 299 297 297 297 298 298 298 298 297 296 295 294 294 294 293 291 287 282 279 277 276 278 281 286 290 293 293 291 288 285 283 280 278 277 276 275 273 271 268 267 266 264 258 250 249 254 257 259 258 257 254 253 253 254 256 260
320 320 318 317 317 317 317 316 315 312 308 304 302 303 306 308 308 306 304 302 301 299 299 298 298 297 295 290 285 279 276 276 278 282 286 290 294 295 294 291 288 286 285 283 281 279 277 276 275 274 271 269 268 268 264 256 250 254 261 263 263 262 260 257 255 256 259 263 267
324 323 322 321 321 320 319 316 314 310 307 304 306 310 315 317 317 315 312 309 307 305 304 303 300 296 289 283 279 277 279 282 286 290 294 296 297 295 292 291 289 288 286 284 283 281 279 277 274 271 270 269 269 268 263 255 255 260 264 264 263 264 265 265 264 264 266 269 269
325 324 323 322 321 320 319 317 314 311 309 309 312 317 321 322 321 318 315 313 310 307 305 302 296 289 284 282 282 283 287 290 294 296 298 298 297 295 294 293 292 291 290 288 287 286 285 282 277 273 272 272 271 268 265 262 264 268 271 271 271 272 272 272 269 267 265 263 260
325 324 323 322 322 321 320 318 316 313 313 314 317 319 321 320 319 317 315 311 308 305 302 297 292 288 288 288 290 292 295 297 298 299 299 299 298 297 297 297 296 296 295 294 293 292 290 286 281 277 274 273 272 271 271 273 276 279 279 278 276 275 275 273 268 262 257 253 251
326 325 324 323 323 322 322 321 320 319 319 320 321 322 321 320 320 319 316 311 307 304 300 298 296 296 296 296 298 299 300 300 299 299 300 300 300 300 300 300 300 301 301 300 298 295 290 284 280 277 276 275 276 278 280 281 282 281 278 274 272 271 271 269 264 259 255 252 250
325 325 324 324 324 323 324 324 325 327 329 331 331 331 330 329 326 322 317 311 307 305 306 306 307 307 305 304 302 300 299 297 298 299 301 302 302 303 303 305 305 306 306 305 303 297 291 287 283 282 282 282 283 284 284 281 279 276 271 267 265 265 265 264 262 259 256 254 252
324 324 324 324 324 325 326 328 330 333 337 340 341 340 339 335 330 324 319 315 314 313 313 313 312 310 307 302 298 295 294 296 299 302 304 304 305 307 310 313 314 313 313 314 315 312 307 301 294 289 285 280 277 277 277 276 276 273 269 265 261 258 258 260 260 260 257 254 254
322 323 324 324 326 327 330 333 333 332 334 338 339 339 337 331 325 321 320 318 316 312 309 305 303 300 297 294 292 293 296 300 303 305 306 306 310 316 324 330 333 330 329 334 339 337 326 305 285 276 272 268 267 269 272 273 274 274 273 270 264 260 260 262 264 265 263 259 258
322 323 324 326 327 329 333 338 338 335 334 336 335 332 328 323 318 315 313 310 307 303 299 296 295 294 294 295 297 299 302 304 306 306 308 311 317 327 338 347 348 345 341 338 329 312 292 280 273 272 272 270 270 271 272 273 274 275 275 274 270 267 268 269 268 268 269 270 268
322 324 326 327 328 332 335 336 337 336 334 332 328 324 320 316 312 310 307 305 302 300 298 297 298 299 301 303 303 304 303 303 303 306 311 316 319 321 326 330 334 329 318 305 294 285 279 276 275 274 274 274 273 273 273 273 273 274 275 274 269 266 266 267 267 268 272 280 285
323 325 326 328 329 331 331 329 330 330 328 325 321 317 314 311 309 308 307 306 305 304 303 303 304 305 306 307 306 305 303 303 304 307 311 312 312 310 309 308 309 306 299 292 287 282 279 277 275 274 273 273 272 271 270 269 269 271 274 275 274 273 272 274 278 281 284 288 291
323 324 325 327 326 329 330 327 326 325 323 321 318 315 312 312 312 312 312 312 312 311 311 310 310 310 309 309 307 306 305 305 306 307 308 308 307 305 303 301 298 295 292 289 287 286 285 284 281 278 276 274 273 274 276 278 283 287 292 296 299 300 299 299 298 298 296 296 295
324 323 321 321 325 326 325 325 324 324 323 321 319 318 317 317 317 318 319 319 320 319 318 317 316 314 312 309 307 306 305 305 304 304 304 305 304 303 301 299 295 293 291 291 291 293 295 296 296 295 293 293 295 299 303 306 308 309 310 310 311 311 311 311 310 309 307 306 304
323 320 320 322 322 322 323 325 326 327 327 326 325 325 324 324 324 324 325 326 325 324 322 321 319 316 313 310 308 306 305 304 304 303 304 303 302 301 300 299 297 296 297 298 300 301 304 306 307 307 308 309 310 312 313 314 315 315 316 315 315 316 316 316 316 316 316 315 313
319 321 322 323 323 325 328 330 332 334 334 333 332 331 330 330 329 329 329 328 328 326 325 323 321 319 316 314 311 309 308 306 305 305 305 304 304 303 302 302 303 305 308 309 310 310 311 311 312 312 313 313 314 316 317 318 319 319 318 318 317 317 317 318 318 319 320 320 319
319 323 326 328 331 333 334 336 338 339 339 338 336 334 333 332 332 331 331 330 330 329 327 326 324 323 321 319 316 314 312 310 309 308 308 308 309 309 310 311 313 314 315 316 316 317 317 317 318 318 319 319 320 321 322 323 323 322 321 320 319 319 318 319 320 321 321 320 317
326 331 333 335 337 339 341 341 340 340 338 337 335 333 333 333 332 333 332 332 332 332 331 330 328 327 326 323 320 318 316 315 314 314 315 316 317 318 319 320 321 321 322 322 323 324 325 325 326 326 326 327 327 328 327 327 326 324 323 322 320 320 319 319 318 318 317 313 309
337 341 342 342 342 341 340 338 337 336 335 334 333 332 333 334 334 335 335 335 335 335 334 333 332 331 329 327 325 323 322 322 323 324 326 327 328 329 330 331 332 332 331 330 330 330 330 330 329 329 329 329 328 328 327 326 325 324 322 321 319 317 316 314 312 309 307 304 302
345 347 344 339 338 337 335 333 333 332 331 332 333 334 335 336 337 338 338 339 339 339 338 338 337 336 335 334 332 332 333 334 336 338 339 340 341 342 342 343 343 341 336 332 330 328 327 326 325 324 324 324 323 323 323 323 322 321 320 318 316 312 308 304 303 301 300 299 298
344 339 335 333 332 331 330 329 329 329 331 333 336 337 339 340 340 341 342 343 345 346 346 346 345 345 345 344 344 344 345 346 347 347 348 348 349 349 349 349 346 339 330 325 323 321 319 318 317 317 318 318 318 319 319 319 319 319 317 315 313 309 304 301 299 298 298 298 297
333 329 328 329 328 327 327 327 328 330 332 335 338 340 342 343 344 344 345 348 351 353 355 355 354 354 354 354 353 353 352 351 350 350 349 349 348 348 348 347 341 330 321 320 319 318 316 315 315 315 316 316 317 318 318 317 317 316 315 314 312 311 309 308 306 305 304 302 301
327 327 328 328 327 326 326 328 330 333 336 338 341 344 347 348 348 346 346 348 352 356 358 359 359 358 357 357 356 354 351 349 347 345 344 344 343 341 342 343 337 327 320 321 320 320 319 318 318 317 317 317 318 317 317 316 315 314 313 313 314 315 314 312 310 307 305 303 300
327 327 327 327 326 327 329 332 335 338 340 342 345 348 350 352 350 346 343 345 349 353 355 356 356 356 355 353 351 348 345 342 339 337 336 337 335 333 335 341 338 328 321 321 321 320 320 318 317 317 317 317 316 316 315 314 313 313 313 315 315 315 312 308 305 303 302 301 299
328 327 327 327 328 331 334 338 342 344 345 346 346 348 350 351 350 346 343 344 346 348 350 350 351 350 348 345 342 338 335 334 333 332 331 331 329 327 329 338 337 327 318 317 316 316 315 314 314 314 315 315 315 315 315 314 314 314 315 315 314 310 307 304 303 303 303 302 302
329 328 328 329 332 336 341 345 348 349 347 345 343 344 348 350 350 349 347 345 345 345 345 344 344 342 339 336 334 331 329 328 328 328 327 326 324 323 325 333 333 322 313 312 312 311 310 311 313 314 316 317 318 319 318 318 318 318 318 316 311 307 304 303 303 303 303 303 302
329 329 331 335 340 344 348 350 351 349 347 344 342 344 346 348 348 348 346 344 342 341 339 338 337 335 333 331 330 328 326 324 322 322 322 322 322 322 324 328 326 317 310 309 309 309 310 312 315 318 321 323 324 324 324 324 324 323 322 319 313 309 305 303 302 301 300 299 298
330 332 336 341 347 351 352 352 351 350 348 346 344 343 343 342 342 341 340 338 338 337 336 334 333 333 332 331 330 328 325 322 320 318 318 320 321 322 322 322 318 312 308 308 308 309 309 311 315 319 322 325 326 327 327 327 328 328 327 324 319 313 307 303 299 296 294 293 292
333 336 342 348 352 354 354 354 352 350 347 345 343 340 337 335 334 333 333 334 334 334 333 333 332 331 331 330 329 328 327 324 321 318 317 319 321 320 318 315 312 309 307 306 306 306 306 307 310 314 319 322 324 325 326 327 328 329 329 327 323 317 311 305 300 295 292 290 290
337 343 349 353 354 354 354 352 350 346 343 341 338 336 334 332 331 331 331 332 332 332 331 330 329 329 328 328 328 327 327 326 323 320 317 317 318 317 314 311 310 309 308 306 305 303 302 302 304 308 312 316 319 321 323 325 327 328 328 327 324 320 316 313 308 304 299 295 293
343 349 355 357 355 353 350 346 343 340 338 337 336 335 335 334 333 332 332 331 332 331 330 328 327 326 326 326 326 327 327 326 324 321 318 316 315 315 313 312 312 313 313 312 309 306 304 303 303 304 306 309 312 315 319 322 325 326 326 325 322 320 319 318 317 314 309 304 298
349 356 359 358 353 347 341 339 338 337 336 335 335 335 335 334 334 333 332 332 332 331 329 328 326 325 325 325 325 325 325 324 323 321 319 317 317 318 318 318 319 320 321 320 316 313 310 307 306 305 305 306 308 312 316 320 323 324 323 322 320 319 319 319 319 318 315 311 307
358 359 356 351 344 338 336 336 336 335 335 334 334 334 334 333 333 333 333 332 332 331 330 329 327 326 326 325 324 324 323 322 321 321 321 321 323 324 325 324 324 324 324 322 319 315 312 310 308 307 306 307 309 312 316 319 321 321 320 318 317 318 318 319 319 319 319 318 317